RH
15 16 17 20 24 27 28 30 41 57 67 91 98 100 98 95 76 72 68 69 68 67 66 65 61 62 62 66 65 66 66 64 60 54 44 46 44 42 40 44 46 45 49
18 17 19 21 23 25 26 26 27 30 46 58 94 96 98 99 99 89 81 75 74 71 70 71 69 66 66 67 68 67 67 65 63 54 52 58 49 44 40 40 43 43 45
16 16 19 22 26 27 26 26 28 28 32 45 68 85 83 96 97 99 98 95 82 81 77 74 75 71 67 68 70 72 69 68 64 57 56 63 64 45 41 39 43 42 43
23 23 22 22 24 29 31 30 29 30 31 33 44 59 68 82 84 86 96 99 98 88 87 82 82 78 72 69 72 76 75 70 67 59 58 55 43 52 50 41 41 43 41
24 26 31 36 38 45 42 40 37 35 33 32 35 42 51 61 66 69 70 80 95 96 92 91 89 88 82 74 74 75 80 74 69 62 58 54 52 44 41 53 45 43 43
37 42 48 48 52 56 55 52 39 34 33 34 37 40 48 53 62 67 70 71 78 92 94 92 94 91 93 89 83 79 83 81 75 70 63 56 56 54 47 54 51 45 47
41 42 43 46 51 55 55 50 50 46 47 43 40 37 42 55 60 64 69 72 77 84 91 98 93 94 95 95 95 92 88 86 82 79 74 64 61 56 52 52 51 45 41
43 44 46 49 50 51 52 52 52 52 53 53 51 47 45 44 49 64 67 68 77 86 91 94 96 94 96 98 99 96 95 95 92 88 82 75 70 59 53 50 52 81 72
47 47 46 48 48 48 50 52 52 52 54 58 59 56 53 50 53 58 70 81 82 88 90 91 93 96 97 99 100 100 99 99 98 97 90 82 68 60 63 71 74 86 98
47 47 45 50 47 48 52 52 53 55 60 64 65 64 62 61 58 60 61 68 85 98 98 99 100 100 100 100 100 100 100 100 99 96 91 83 86 93 94 89 73 67 76
46 48 47 48 49 50 52 52 54 58 66 79 79 72 71 70 70 70 73 84 89 95 92 96 99 100 100 100 100 100 100 100 100 99 97 87 76 78 85 90 92 92 89
42 51 49 49 48 51 53 55 56 61 71 85 91 92 89 90 89 88 86 90 92 92 95 97 100 100 100 100 100 100 99 99 94 87 85 88 88 86 90 93 92 95 96
45 51 48 49 50 54 55 54 57 63 71 80 85 86 88 88 90 92 94 92 91 89 86 83 79 77 84 86 87 89 87 89 87 84 79 77 77 82 93 95 97 94 93
41 49 47 49 53 58 56 55 58 59 63 72 74 77 81 79 79 74 76 75 74 73 71 70 70 72 72 71 72 77 83 86 87 83 82 81 84 91 94 94 95 86 82
45 50 51 52 57 58 56 57 61 62 64 69 71 70 71 78 76 75 77 76 77 78 79 80 79 78 77 78 77 76 76 76 82 88 94 96 98 98 89 80 88 87 79
49 48 50 58 60 60 60 62 64 69 72 76 78 77 78 80 82 84 87 88 89 87 82 82 79 78 88 73 70 73 86 93 97 100 99 93 84 92 94 92 87 90 87
52 46 48 54 68 69 65 66 68 74 80 82 82 82 86 86 89 92 95 97 99 90 94 97 99 100 99 96 98 99 99 99 99 96 89 85 82 57 48 46 71 88 87
47 45 46 52 65 68 64 66 71 80 86 87 88 93 97 99 98 100 100 99 99 99 99 100 100 100 100 99 96 94 83 59 73 87 89 82 74 71 77 78 80 84 82
42 45 50 59 68 68 68 69 73 78 82 85 91 96 98 99 99 100 99 100 100 100 100 100 96 94 96 71 72 64 70 82 75 54 63 72 68 76 85 81 80 75 66
47 53 58 65 68 69 66 68 73 76 84 91 100 99 98 98 98 99 99 100 99 100 99 100 99 94 93 80 65 60 62 59 60 65 69 68 80 85 82 79 69 63 62
51 54 58 63 73 76 72 72 84 94 99 100 99 100 95 97 99 100 100 100 100 100 98 83 85 88 85 87 80 72 68 64 66 63 64 69 83 80 76 78 76 66 72
55 58 70 78 85 87 84 93 99 100 100 99 98 98 99 100 100 99 99 95 87 72 60 61 61 65 72 76 81 84 80 80 68 64 67 71 79 74 77 78 72 85 89
57 64 70 78 87 94 97 98 99 99 99 99 100 100 99 99 96 83 62 44 42 42 41 42 40 44 58 68 67 80 63 74 67 70 72 68 68 68 65 64 85 86 72
57 59 61 65 79 92 100 100 99 99 100 100 100 91 77 58 45 38 36 36 35 34 36 34 33 42 50 59 65 70 67 67 68 73 72 58 59 65 68 72 72 73 76
59 60 61 65 78 95 100 99 99 99 99 95 82 61 44 38 38 37 36 35 40 35 29 33 37 41 50 68 75 78 78 80 74 78 51 49 53 59 65 70 73 75 77
60 62 59 63 87 93 93 93 90 86 85 76 58 45 38 36 36 44 55 39 31 26 29 40 50 55 60 67 82 84 85 87 78 62 48 52 61 71 78 80 84 89 92
Wind_Speed
16 19 20 20 15 17 18 18 18 20 21 19 21 22 26 22 18 19 18 18 19 21 23 23 22 23 24 22 21 19 19 18 16 13 11 11 12 13 15 15 16 16 16
15 15 15 15 17 19 19 20 20 20 20 20 19 18 19 22 26 20 19 21 22 24 26 26 25 25 23 23 24 23 20 19 19 15 12 4 10 17 18 17 17 16 16
15 14 13 15 14 16 16 17 18 19 21 21 17 17 17 14 18 26 30 30 24 26 28 28 26 25 26 26 27 26 26 21 22 24 9 4 5 10 15 18 17 16 16
15 10 12 13 11 11 12 13 15 16 18 19 22 22 21 19 21 20 20 25 25 27 28 28 28 27 27 28 29 29 29 25 22 20 26 16 2 3 3 10 16 16 17
8 6 4 3 1 2 6 10 12 13 14 15 20 22 23 20 20 19 20 19 21 27 26 27 29 30 29 28 29 28 31 30 24 26 12 20 16 11 3 3 6 13 15
7 7 7 7 7 5 4 3 3 8 10 13 15 18 21 21 20 20 20 20 18 19 24 31 29 31 29 28 28 27 28 30 28 24 23 20 11 15 8 3 5 7 11
9 8 7 7 6 6 6 5 5 2 2 5 10 15 18 21 21 21 20 19 18 18 21 22 28 30 31 30 28 27 27 29 28 28 25 22 21 14 18 10 3 3 5
8 7 6 5 6 6 6 6 6 5 5 5 6 8 10 15 19 21 20 18 17 18 18 20 22 27 29 30 30 28 28 26 27 25 20 18 17 17 14 12 12 2 3
7 6 5 5 5 5 6 7 7 7 7 8 8 9 10 11 12 15 17 19 22 21 18 17 19 20 24 26 29 30 27 24 21 21 21 16 12 11 7 5 8 4 3
5 5 4 4 3 4 5 7 8 9 9 10 10 10 10 10 11 10 12 13 15 16 19 17 14 16 20 23 25 25 23 24 23 23 21 16 13 11 8 7 7 8 4
5 4 4 3 3 4 6 7 8 9 9 10 10 9 8 8 8 8 8 6 8 10 12 12 10 10 10 12 16 18 19 19 18 15 16 16 18 15 14 11 7 9 11
3 4 3 3 3 5 7 8 8 8 8 8 8 8 7 6 4 4 4 3 3 4 4 4 4 4 6 9 12 14 14 15 16 18 19 18 16 13 12 12 9 8 8
5 5 4 2 3 6 6 7 7 7 7 7 8 9 8 7 7 6 6 6 6 7 8 7 7 5 4 5 7 9 11 13 14 17 17 18 17 16 13 11 8 5 4
6 6 4 3 3 4 3 4 6 7 7 8 10 11 11 11 10 10 10 10 9 11 11 13 12 12 11 11 11 13 15 18 17 15 13 14 12 12 9 7 5 4 3
7 6 5 3 2 1 2 4 6 7 8 9 11 11 11 11 12 14 15 15 16 16 15 16 15 15 14 14 15 17 17 17 18 14 12 10 8 8 6 5 3 3 2
9 7 5 3 2 2 3 4 5 7 8 11 11 11 12 14 16 18 19 20 21 19 19 21 22 23 20 17 18 17 16 15 14 14 10 11 8 6 4 1 2 1 2
7 8 7 7 6 4 4 4 6 7 9 8 11 11 12 15 15 16 18 19 21 21 23 23 22 23 21 17 16 14 15 12 12 12 8 8 3 3 1 3 4 5 6
8 7 8 9 7 6 6 7 7 7 8 10 12 10 10 13 15 16 21 22 23 24 24 25 25 24 19 16 16 14 13 11 9 7 5 5 4 4 3 4 6 7 8
7 8 9 10 8 6 6 7 7 8 7 10 10 9 11 15 16 19 20 21 23 24 23 21 20 20 18 16 13 11 9 8 6 5 7 5 3 3 5 6 8 9 9
9 11 11 10 9 7 6 7 6 7 7 8 9 10 16 20 21 21 22 22 22 23 22 19 16 13 13 10 9 8 9 8 6 3 2 4 4 5 6 8 9 11 9
10 11 10 9 7 6 6 7 8 8 8 10 12 15 19 22 23 22 22 20 16 16 15 14 12 11 10 9 9 8 6 4 3 2 2 2 5 7 8 8 8 9 11
10 9 9 8 6 6 9 10 11 10 11 14 17 17 17 18 19 18 16 12 11 11 11 11 10 8 8 7 6 6 6 4 3 3 4 5 8 9 9 8 7 9 9
9 9 10 9 7 7 8 14 12 14 17 18 15 16 16 15 14 12 11 10 9 9 8 7 6 6 5 3 3 3 5 5 4 3 6 8 8 8 7 5 8 7 5
10 11 11 10 9 9 11 13 14 17 16 14 14 15 14 13 11 10 8 8 7 6 6 5 5 5 3 2 2 3 4 6 5 6 7 9 8 8 7 7 5 5 6
11 11 11 11 11 12 14 15 16 17 17 15 15 14 13 12 11 10 6 6 6 5 5 4 4 3 3 1 1 2 4 5 5 8 6 7 7 7 5 6 6 7 7
13 12 12 13 14 15 16 17 18 18 18 16 14 13 12 11 10 10 9 7 6 5 5 6 4 2 2 0 1 4 4 6 6 6 6 7 6 6 6 6 7 7 8
Wind_Direction
238 236 235 233 219 224 220 217 218 217 214 205 212 215 222 218 224 223 223 220 220 218 214 215 216 214 215 216 216 215 212 214 209 200 210 220 222 221 215 213 214 214 210
231 229 230 229 228 227 226 226 224 225 220 218 214 216 222 228 230 225 222 223 221 220 218 218 219 216 217 219 218 213 212 213 206 196 192 204 216 228 221 216 216 216 212
244 234 218 226 227 232 231 226 227 225 227 224 212 218 225 218 225 232 232 229 225 222 222 221 221 220 217 218 218 212 210 208 206 207 194 203 228 159 205 214 215 216 210
247 259 262 258 241 234 240 239 232 230 231 229 230 220 218 222 229 232 236 234 230 230 226 225 223 224 222 219 219 216 212 206 207 205 230 249 251 201 163 213 219 218 216
222 215 200 170 194 268 252 249 244 241 239 236 235 238 238 233 237 240 240 235 238 233 232 231 229 227 227 226 221 219 213 211 214 206 201 223 230 242 266 160 186 213 218
149 136 126 123 108 83 62 46 246 240 241 241 243 245 247 244 241 243 246 244 239 235 237 233 234 235 232 230 227 225 219 216 219 216 213 198 198 214 199 214 154 175 196
150 140 133 118 95 75 56 49 40 55 305 260 250 246 248 250 251 246 247 249 247 242 242 236 236 238 234 234 233 226 225 220 222 220 215 217 219 218 212 185 122 144 134
136 129 118 105 84 60 41 29 16 354 330 307 282 267 258 254 255 251 251 253 248 250 253 250 247 244 240 237 232 227 224 221 222 223 224 216 223 227 220 190 157 125 156
139 130 118 94 71 47 27 8 353 340 328 313 301 285 274 265 262 262 259 257 258 257 257 259 253 248 246 240 237 229 225 219 214 213 210 205 204 202 199 178 171 119 234
149 137 123 100 77 47 19 360 352 342 334 328 316 302 291 280 273 269 268 267 260 264 259 254 248 248 240 238 233 226 218 210 202 204 202 197 194 190 170 132 138 142 125
158 147 129 104 72 35 13 3 359 350 347 346 335 321 310 300 292 281 282 278 265 268 266 260 251 250 247 237 230 222 216 206 201 202 197 170 155 151 147 154 188 165 153
166 155 140 116 78 28 17 11 5 0 360 360 358 357 352 347 337 314 295 285 262 270 251 240 226 224 216 216 215 208 208 205 187 173 167 161 159 150 159 162 160 158 145
185 179 173 132 58 29 20 15 13 13 16 19 21 24 24 31 37 43 50 61 79 82 81 81 80 85 128 164 182 193 179 168 164 159 157 153 155 151 158 146 164 148 164
193 191 170 144 69 42 27 25 29 32 38 44 47 46 43 51 61 74 78 86 93 94 98 94 94 96 99 108 120 123 128 121 127 133 140 146 151 148 152 145 158 171 165
197 189 173 154 101 129 76 45 40 41 49 58 59 57 57 63 69 72 77 84 89 91 98 101 100 103 106 111 120 124 121 120 121 121 121 120 122 114 130 108 126 168 203
189 184 149 149 153 142 110 75 65 61 64 66 64 66 70 75 78 80 83 86 90 95 98 98 100 99 98 110 114 120 115 118 120 119 112 93 87 105 100 132 223 245 267
160 180 170 162 154 149 125 108 94 86 82 92 82 78 84 85 86 90 93 92 93 102 101 101 98 99 97 104 110 114 114 113 97 91 97 108 120 78 348 318 310 300 277
173 162 159 154 149 151 138 130 115 108 108 100 97 97 99 99 101 102 107 109 113 110 110 109 106 101 94 103 108 108 101 99 96 93 89 73 42 7 357 323 303 284 288
144 138 139 147 143 145 149 139 132 113 109 97 97 107 111 106 107 110 110 116 116 116 113 110 107 104 101 104 102 99 101 106 101 77 55 42 3 350 348 325 307 300 297
135 139 142 148 147 151 160 148 134 118 102 101 107 119 124 123 120 124 126 122 119 113 110 101 98 102 100 95 88 80 69 62 62 78 45 356 13 354 329 317 312 308 307
141 142 144 147 147 146 153 136 123 116 119 116 119 128 129 127 128 126 125 117 110 108 106 101 98 99 98 92 75 69 68 63 43 33 352 329 342 335 326 316 300 293 301
149 150 139 142 146 152 142 130 127 134 131 130 128 126 123 126 128 124 119 119 122 117 111 108 102 97 97 94 84 65 58 35 25 2 343 332 323 320 312 303 293 298 302
162 164 161 157 153 144 144 139 140 146 142 135 131 131 127 127 128 128 131 129 128 123 119 121 124 123 120 106 83 45 16 7 5 325 299 308 313 313 311 297 307 312 310
170 175 172 163 151 147 146 145 148 148 141 135 135 134 133 135 133 128 128 130 126 121 128 132 129 128 121 88 31 358 354 340 346 328 318 310 315 315 312 320 315 308 301
173 176 175 169 159 156 152 153 153 152 147 147 146 141 141 139 131 113 108 117 118 129 136 130 138 140 140 110 357 359 348 328 329 321 311 313 319 323 321 318 315 315 312
174 178 176 169 163 165 163 165 165 164 160 156 151 152 148 143 135 125 103 107 114 130 146 148 143 125 149 282 316 323 325 320 322 326 307 315 313 313 317 320 317 314 309